Voltar ao catálogo

STARLINK-37164

AtivoComunicaçõesVLEO
NORAD 68324·PAYLOAD·🇺🇸 United States

Lançado Mar 22, 2026 de Cape Canaveral Space Force Station

Loading…

Próximas Passagens (próximas 24 horas)

TLE

AtualizadoSource: CelesTrak SupGP

Época: Sep 14, 2026, 20:58 UTC

1 68324C 26059D   26257.87409722  .00009502  00000+0  28066-3 0  2573
2 68324  53.1586 187.8000 0001714  87.4531 319.2471 15.34395839    16

Acompanhe STARLINK-37164 em tempo real com AllMySat

Download on the App Store